星链-30320 (STARLINK-30320 )

导读

STARLINK-30320是美国SpaceX公司星链(Starlink)低轨宽带通信星座中的一颗卫星,于2023年8月22日发射。星链卫星采用平板设计,搭载Ku/Ka波段通信载荷,配备氪工质霍尔推进器,具备自主避撞能力,设计寿命约5-7年,旨在为全球提供高速低延迟宽带互联网服务,退役后会再入大气层销毁。

基本信息
目录编号:
57678
目录名称:
STARLINK-30320
国际标识:
2023-124R
轨道中心:
EARTH
卫星名称:
星链-30320
卫星全名:
星链-30320 (STARLINK-30320 )
卫星状态:
在轨 (已飞行1031 天)
发射日期:
2023-08-22 UTC
国别 :
美国 (US)
星等 :
--
轨道信息
数据来源 国际轨道数据 AOE轨道数据
星历时间 2026-06-18T12:00:42+0800
9小时前
查看轨道信息
2026-06-14T02:00:00+0800
4天前
查看轨道信息
半长轴 6840.836km 6840.816km
偏心率 0.0001421 0.0001313
轨道倾角 53.160° 53.159°
近地点辐角 84.745° 97.868°
升交点赤经 86.507° 107.157°
平近点角 275.372° 329.109°
近地点 461.726km 461.78km
远地点 463.672km 463.578km
周期 93.848分钟 93.847分钟
每日圈数 15.344015 15.344084
详细信息
固有亮度:
5
最大亮度:
0.3
卫星平台:
Starlink v2.0 mini
覆盖范围:
全球
运营商:
太空探索技术公司
运营商所在国:
美国
制造商(研发单位):
太空探索技术公司
制造商所在国:
美国
使用方式:
暂无
卫星简介
星链(Starlink)计划是由太空探索技术公司(SpaceX)提出的一个巨型低轨卫星互联网星座项目,计划在2019年至2024年间在太空搭建由约1.2万颗卫星组成的“星链”网络,其中1584颗将部署在地球上空550千米处的近地轨道,并从2020年开始工作。该卫星仍在工作。
2D轨道图
3D轨道图
轨道高度分析图
轨道倾角分析图
轨道综合分析图
查看轨道综合分析图